Year,Month,Day,Hour,Minute,Value (Times are PST for insolation in W/m^2)
2018,10,03,00,00,0.00
2018,10,03,00,01,0.00
2018,10,03,00,02,0.00
2018,10,03,00,03,0.00
2018,10,03,00,04,0.00
2018,10,03,00,05,0.00
2018,10,03,00,06,0.00
2018,10,03,00,07,0.00
2018,10,03,00,08,0.00
2018,10,03,00,09,0.00
2018,10,03,00,10,0.00
2018,10,03,00,11,0.00
2018,10,03,00,12,0.00
2018,10,03,00,13,0.00
2018,10,03,00,14,0.00
2018,10,03,00,15,0.00
2018,10,03,00,16,0.00
2018,10,03,00,17,0.00
2018,10,03,00,18,0.00
2018,10,03,00,19,0.00
2018,10,03,00,20,0.00
2018,10,03,00,21,0.00
2018,10,03,00,22,0.00
2018,10,03,00,23,0.00
2018,10,03,00,24,0.00
2018,10,03,00,25,0.00
2018,10,03,00,26,0.00
2018,10,03,00,27,0.00
2018,10,03,00,28,0.00
2018,10,03,00,29,0.00
2018,10,03,00,30,0.00
2018,10,03,00,31,0.00
2018,10,03,00,32,0.00
2018,10,03,00,33,0.00
2018,10,03,00,34,0.00
2018,10,03,00,35,0.00
2018,10,03,00,36,0.00
2018,10,03,00,37,0.00
2018,10,03,00,38,0.00
2018,10,03,00,39,0.00
2018,10,03,00,40,0.00
2018,10,03,00,41,0.00
2018,10,03,00,42,0.00
2018,10,03,00,43,0.00
2018,10,03,00,44,0.00
2018,10,03,00,45,0.00
2018,10,03,00,46,0.00
2018,10,03,00,47,0.00
2018,10,03,00,48,0.00
2018,10,03,00,49,0.00
2018,10,03,00,50,0.00
2018,10,03,00,51,0.00
2018,10,03,00,52,0.00
2018,10,03,00,53,0.00
2018,10,03,00,54,0.00
2018,10,03,00,55,0.00
2018,10,03,00,56,0.00
2018,10,03,00,57,0.00
2018,10,03,00,58,0.00
2018,10,03,00,59,0.00
2018,10,03,01,00,0.00
2018,10,03,01,01,0.00
2018,10,03,01,02,0.00
2018,10,03,01,03,0.00
2018,10,03,01,04,0.00
2018,10,03,01,05,0.00
2018,10,03,01,06,0.00
2018,10,03,01,07,0.00
2018,10,03,01,08,0.00
2018,10,03,01,09,0.00
2018,10,03,01,10,0.00
2018,10,03,01,11,0.00
2018,10,03,01,12,0.00
2018,10,03,01,13,0.00
2018,10,03,01,14,0.00
2018,10,03,01,15,0.00
2018,10,03,01,16,0.00
2018,10,03,01,17,0.00
2018,10,03,01,18,0.00
2018,10,03,01,19,0.00
2018,10,03,01,20,0.00
2018,10,03,01,21,0.00
2018,10,03,01,22,0.00
2018,10,03,01,23,0.00
2018,10,03,01,24,0.00
2018,10,03,01,25,0.00
2018,10,03,01,26,0.00
2018,10,03,01,27,0.00
2018,10,03,01,28,0.00
2018,10,03,01,29,0.00
2018,10,03,01,30,0.00
2018,10,03,01,31,0.00
2018,10,03,01,32,0.00
2018,10,03,01,33,0.00
2018,10,03,01,34,0.00
2018,10,03,01,35,0.00
2018,10,03,01,36,0.00
2018,10,03,01,37,0.00
2018,10,03,01,38,0.00
2018,10,03,01,39,0.00
2018,10,03,01,40,0.00
2018,10,03,01,41,0.00
2018,10,03,01,42,0.00
2018,10,03,01,43,0.00
2018,10,03,01,44,0.00
2018,10,03,01,45,0.00
2018,10,03,01,46,0.00
2018,10,03,01,47,0.00
2018,10,03,01,48,0.00
2018,10,03,01,49,0.00
2018,10,03,01,50,0.00
2018,10,03,01,51,0.00
2018,10,03,01,52,0.00
2018,10,03,01,53,0.00
2018,10,03,01,54,0.00
2018,10,03,01,55,0.00
2018,10,03,01,56,0.00
2018,10,03,01,57,0.00
2018,10,03,01,58,0.00
2018,10,03,01,59,0.00
2018,10,03,02,00,0.00
2018,10,03,02,01,0.00
2018,10,03,02,02,0.00
2018,10,03,02,03,0.00
2018,10,03,02,04,0.00
2018,10,03,02,05,0.00
2018,10,03,02,06,0.00
2018,10,03,02,07,0.00
2018,10,03,02,08,0.00
2018,10,03,02,09,0.00
2018,10,03,02,10,0.00
2018,10,03,02,11,0.00
2018,10,03,02,12,0.00
2018,10,03,02,13,0.00
2018,10,03,02,14,0.00
2018,10,03,02,15,0.00
2018,10,03,02,16,0.00
2018,10,03,02,17,0.00
2018,10,03,02,18,0.00
2018,10,03,02,19,0.00
2018,10,03,02,20,0.00
2018,10,03,02,21,0.00
2018,10,03,02,22,0.00
2018,10,03,02,23,0.00
2018,10,03,02,24,0.00
2018,10,03,02,25,0.00
2018,10,03,02,26,0.00
2018,10,03,02,27,0.00
2018,10,03,02,28,0.00
2018,10,03,02,29,0.00
2018,10,03,02,30,0.00
2018,10,03,02,31,0.00
2018,10,03,02,32,0.00
2018,10,03,02,33,0.00
2018,10,03,02,34,0.00
2018,10,03,02,35,0.00
2018,10,03,02,36,0.00
2018,10,03,02,37,0.00
2018,10,03,02,38,0.00
2018,10,03,02,39,0.00
2018,10,03,02,40,0.00
2018,10,03,02,41,0.00
2018,10,03,02,42,0.00
2018,10,03,02,43,0.00
2018,10,03,02,44,0.00
2018,10,03,02,45,0.00
2018,10,03,02,46,0.00
2018,10,03,02,47,0.00
2018,10,03,02,48,0.00
2018,10,03,02,49,0.00
2018,10,03,02,50,0.00
2018,10,03,02,51,0.00
2018,10,03,02,52,0.00
2018,10,03,02,53,0.00
2018,10,03,02,54,0.00
2018,10,03,02,55,0.00
2018,10,03,02,56,0.00
2018,10,03,02,57,0.00
2018,10,03,02,58,0.00
2018,10,03,02,59,0.00
2018,10,03,03,00,0.00
2018,10,03,03,01,0.00
2018,10,03,03,02,0.00
2018,10,03,03,03,0.00
2018,10,03,03,04,0.00
2018,10,03,03,05,0.00
2018,10,03,03,06,0.00
2018,10,03,03,07,0.00
2018,10,03,03,08,0.00
2018,10,03,03,09,0.00
2018,10,03,03,10,0.00
2018,10,03,03,11,0.00
2018,10,03,03,12,0.00
2018,10,03,03,13,0.00
2018,10,03,03,14,0.00
2018,10,03,03,15,0.00
2018,10,03,03,16,0.00
2018,10,03,03,17,0.00
2018,10,03,03,18,0.00
2018,10,03,03,19,0.00
2018,10,03,03,20,0.00
2018,10,03,03,21,0.00
2018,10,03,03,22,0.00
2018,10,03,03,23,0.00
2018,10,03,03,24,0.00
2018,10,03,03,25,0.00
2018,10,03,03,26,0.00
2018,10,03,03,27,0.00
2018,10,03,03,28,0.00
2018,10,03,03,29,0.00
2018,10,03,03,30,0.00
2018,10,03,03,31,0.00
2018,10,03,03,32,0.00
2018,10,03,03,33,0.00
2018,10,03,03,34,0.00
2018,10,03,03,35,0.00
2018,10,03,03,36,0.00
2018,10,03,03,37,0.00
2018,10,03,03,38,0.00
2018,10,03,03,39,0.00
2018,10,03,03,40,0.00
2018,10,03,03,41,0.00
2018,10,03,03,42,0.00
2018,10,03,03,43,0.00
2018,10,03,03,44,0.00
2018,10,03,03,45,0.00
2018,10,03,03,46,0.00
2018,10,03,03,47,0.00
2018,10,03,03,48,0.00
2018,10,03,03,49,0.00
2018,10,03,03,50,0.00
2018,10,03,03,51,0.00
2018,10,03,03,52,0.00
2018,10,03,03,53,0.00
2018,10,03,03,54,0.00
2018,10,03,03,55,0.00
2018,10,03,03,56,0.00
2018,10,03,03,57,0.00
2018,10,03,03,58,0.00
2018,10,03,03,59,0.00
2018,10,03,04,00,0.00
2018,10,03,04,01,0.00
2018,10,03,04,02,0.00
2018,10,03,04,03,0.00
2018,10,03,04,04,0.00
2018,10,03,04,05,0.00
2018,10,03,04,06,0.00
2018,10,03,04,07,0.00
2018,10,03,04,08,0.00
2018,10,03,04,09,0.00
2018,10,03,04,10,0.00
2018,10,03,04,11,0.00
2018,10,03,04,12,0.00
2018,10,03,04,13,0.00
2018,10,03,04,14,0.00
2018,10,03,04,15,0.00
2018,10,03,04,16,0.00
2018,10,03,04,17,0.00
2018,10,03,04,18,0.00
2018,10,03,04,19,0.00
2018,10,03,04,20,0.00
2018,10,03,04,21,0.00
2018,10,03,04,22,0.00
2018,10,03,04,23,0.00
2018,10,03,04,24,0.00
2018,10,03,04,25,0.00
2018,10,03,04,26,0.00
2018,10,03,04,27,0.00
2018,10,03,04,28,0.00
2018,10,03,04,29,0.00
2018,10,03,04,30,0.00
2018,10,03,04,31,0.00
2018,10,03,04,32,0.00
2018,10,03,04,33,0.00
2018,10,03,04,34,0.00
2018,10,03,04,35,0.00
2018,10,03,04,36,0.00
2018,10,03,04,37,0.00
2018,10,03,04,38,0.00
2018,10,03,04,39,0.00
2018,10,03,04,40,0.00
2018,10,03,04,41,0.00
2018,10,03,04,42,0.00
2018,10,03,04,43,0.00
2018,10,03,04,44,0.00
2018,10,03,04,45,0.00
2018,10,03,04,46,0.00
2018,10,03,04,47,0.00
2018,10,03,04,48,0.00
2018,10,03,04,49,0.00
2018,10,03,04,50,0.00
2018,10,03,04,51,0.00
2018,10,03,04,52,0.00
2018,10,03,04,53,0.00
2018,10,03,04,54,0.00
2018,10,03,04,55,0.00
2018,10,03,04,56,0.00
2018,10,03,04,57,0.00
2018,10,03,04,58,0.00
2018,10,03,04,59,0.00
2018,10,03,05,00,0.00
2018,10,03,05,01,0.00
2018,10,03,05,02,0.00
2018,10,03,05,03,0.00
2018,10,03,05,04,0.00
2018,10,03,05,05,0.00
2018,10,03,05,06,0.00
2018,10,03,05,07,0.00
2018,10,03,05,08,0.00
2018,10,03,05,09,0.00
2018,10,03,05,10,0.00
2018,10,03,05,11,0.00
2018,10,03,05,12,0.00
2018,10,03,05,13,0.00
2018,10,03,05,14,0.00
2018,10,03,05,15,0.00
2018,10,03,05,16,0.00
2018,10,03,05,17,0.00
2018,10,03,05,18,0.00
2018,10,03,05,19,0.00
2018,10,03,05,20,0.00
2018,10,03,05,21,0.00
2018,10,03,05,22,0.00
2018,10,03,05,23,0.00
2018,10,03,05,24,0.00
2018,10,03,05,25,0.00
2018,10,03,05,26,0.00
2018,10,03,05,27,0.00
2018,10,03,05,28,0.00
2018,10,03,05,29,0.00
2018,10,03,05,30,0.00
2018,10,03,05,31,0.00
2018,10,03,05,32,0.00
2018,10,03,05,33,0.00
2018,10,03,05,34,0.00
2018,10,03,05,35,0.00
2018,10,03,05,36,0.00
2018,10,03,05,37,0.00
2018,10,03,05,38,0.00
2018,10,03,05,39,0.00
2018,10,03,05,40,0.00
2018,10,03,05,41,0.00
2018,10,03,05,42,0.00
2018,10,03,05,43,0.00
2018,10,03,05,44,0.00
2018,10,03,05,45,0.00
2018,10,03,05,46,0.00
2018,10,03,05,47,0.00
2018,10,03,05,48,0.00
2018,10,03,05,49,0.00
2018,10,03,05,50,0.00
2018,10,03,05,51,0.00
2018,10,03,05,52,0.00
2018,10,03,05,53,0.00
2018,10,03,05,54,0.00
2018,10,03,05,55,0.00
2018,10,03,05,56,0.00
2018,10,03,05,57,0.00
2018,10,03,05,58,0.00
2018,10,03,05,59,0.00
2018,10,03,06,00,0.00
2018,10,03,06,01,0.00
2018,10,03,06,02,0.00
2018,10,03,06,03,0.00
2018,10,03,06,04,0.00
2018,10,03,06,05,0.00
2018,10,03,06,06,0.00
2018,10,03,06,07,0.00
2018,10,03,06,08,0.00
2018,10,03,06,09,0.00
2018,10,03,06,10,0.00
2018,10,03,06,11,0.00
2018,10,03,06,12,0.00
2018,10,03,06,13,0.00
2018,10,03,06,14,0.00
2018,10,03,06,15,0.00
2018,10,03,06,16,0.00
2018,10,03,06,17,0.00
2018,10,03,06,18,0.00
2018,10,03,06,19,0.00
2018,10,03,06,20,0.00
2018,10,03,06,21,0.00
2018,10,03,06,22,0.00
2018,10,03,06,23,0.00
2018,10,03,06,24,0.00
2018,10,03,06,25,0.00
2018,10,03,06,26,0.00
2018,10,03,06,27,0.00
2018,10,03,06,28,0.00
2018,10,03,06,29,0.00
2018,10,03,06,30,0.00
2018,10,03,06,31,0.00
2018,10,03,06,32,0.00
2018,10,03,06,33,0.00
2018,10,03,06,34,0.00
2018,10,03,06,35,0.00
2018,10,03,06,36,0.00
2018,10,03,06,37,0.00
2018,10,03,06,38,0.00
2018,10,03,06,39,0.00
2018,10,03,06,40,0.00
2018,10,03,06,41,0.00
2018,10,03,06,42,0.00
2018,10,03,06,43,0.00
2018,10,03,06,44,0.00
2018,10,03,06,45,0.00
2018,10,03,06,46,0.00
2018,10,03,06,47,0.00
2018,10,03,06,48,0.00
2018,10,03,06,49,0.00
2018,10,03,06,50,0.00
2018,10,03,06,51,0.00
2018,10,03,06,52,0.00
2018,10,03,06,53,0.00
2018,10,03,06,54,0.00
2018,10,03,06,55,0.00
2018,10,03,06,56,0.00
2018,10,03,06,57,0.00
2018,10,03,06,58,0.00
2018,10,03,06,59,0.00
2018,10,03,07,00,0.00
2018,10,03,07,01,0.00
2018,10,03,07,02,0.00
2018,10,03,07,03,0.00
2018,10,03,07,04,0.00
2018,10,03,07,05,0.00
2018,10,03,07,06,0.00
2018,10,03,07,07,0.00
2018,10,03,07,08,0.00
2018,10,03,07,09,4.30
2018,10,03,07,10,5.00
2018,10,03,07,11,5.00
2018,10,03,07,12,5.70
2018,10,03,07,13,7.00
2018,10,03,07,14,7.00
2018,10,03,07,15,7.00
2018,10,03,07,16,8.70
2018,10,03,07,17,9.20
2018,10,03,07,18,11.00
2018,10,03,07,19,11.40
2018,10,03,07,20,12.00
2018,10,03,07,21,13.20
2018,10,03,07,22,16.90
2018,10,03,07,23,18.90
2018,10,03,07,24,21.30
2018,10,03,07,25,25.20
2018,10,03,07,26,26.70
2018,10,03,07,27,28.00
2018,10,03,07,28,28.00
2018,10,03,07,29,29.40
2018,10,03,07,30,30.00
2018,10,03,07,31,32.00
2018,10,03,07,32,32.20
2018,10,03,07,33,33.70
2018,10,03,07,34,35.00
2018,10,03,07,35,36.20
2018,10,03,07,36,38.40
2018,10,03,07,37,39.00
2018,10,03,07,38,39.10
2018,10,03,07,39,40.00
2018,10,03,07,40,40.00
2018,10,03,07,41,40.00
2018,10,03,07,42,40.00
2018,10,03,07,43,40.00
2018,10,03,07,44,40.00
2018,10,03,07,45,40.00
2018,10,03,07,46,40.00
2018,10,03,07,47,40.00
2018,10,03,07,48,40.00
2018,10,03,07,49,40.00
2018,10,03,07,50,40.00
2018,10,03,07,51,40.00
2018,10,03,07,52,40.00
2018,10,03,07,53,40.40
2018,10,03,07,54,42.00
2018,10,03,07,55,43.00
2018,10,03,07,56,44.00
2018,10,03,07,57,45.50
2018,10,03,07,58,46.90
2018,10,03,07,59,47.20
2018,10,03,08,00,49.50
2018,10,03,08,01,51.70
2018,10,03,08,02,54.40
2018,10,03,08,03,57.20
2018,10,03,08,04,58.00
2018,10,03,08,05,58.00
2018,10,03,08,06,62.10
2018,10,03,08,07,63.00
2018,10,03,08,08,63.70
2018,10,03,08,09,65.90
2018,10,03,08,10,68.20
2018,10,03,08,11,69.70
2018,10,03,08,12,71.70
2018,10,03,08,13,74.10
2018,10,03,08,14,76.20
2018,10,03,08,15,77.70
2018,10,03,08,16,79.00
2018,10,03,08,17,80.20
2018,10,03,08,18,81.00
2018,10,03,08,19,81.00
2018,10,03,08,20,78.90
2018,10,03,08,21,76.80
2018,10,03,08,22,76.00
2018,10,03,08,23,76.00
2018,10,03,08,24,74.80
2018,10,03,08,25,75.40
2018,10,03,08,26,76.00
2018,10,03,08,27,76.00
2018,10,03,08,28,76.00
2018,10,03,08,29,76.00
2018,10,03,08,30,76.00
2018,10,03,08,31,76.60
2018,10,03,08,32,79.90
2018,10,03,08,33,81.00
2018,10,03,08,34,84.10
2018,10,03,08,35,86.50
2018,10,03,08,36,89.10
2018,10,03,08,37,91.90
2018,10,03,08,38,94.20
2018,10,03,08,39,97.10
2018,10,03,08,40,99.70
2018,10,03,08,41,102.20
2018,10,03,08,42,104.20
2018,10,03,08,43,105.70
2018,10,03,08,44,107.90
2018,10,03,08,45,109.00
2018,10,03,08,46,110.50
2018,10,03,08,47,112.70
2018,10,03,08,48,113.00
2018,10,03,08,49,113.20
2018,10,03,08,50,114.70
2018,10,03,08,51,116.00
2018,10,03,08,52,118.40
2018,10,03,08,53,120.00
2018,10,03,08,54,116.60
2018,10,03,08,55,116.00
2018,10,03,08,56,116.00
2018,10,03,08,57,116.00
2018,10,03,08,58,116.90
2018,10,03,08,59,118.00
2018,10,03,09,00,118.00
2018,10,03,09,01,119.70
2018,10,03,09,02,123.30
2018,10,03,09,03,127.00
2018,10,03,09,04,128.70
2018,10,03,09,05,133.00
2018,10,03,09,06,135.90
2018,10,03,09,07,143.80
2018,10,03,09,08,152.00
2018,10,03,09,09,152.60
2018,10,03,09,10,148.40
2018,10,03,09,11,144.30
2018,10,03,09,12,141.50
2018,10,03,09,13,144.30
2018,10,03,09,14,146.00
2018,10,03,09,15,147.70
2018,10,03,09,16,149.00
2018,10,03,09,17,149.00
2018,10,03,09,18,149.00
2018,10,03,09,19,149.00
2018,10,03,09,20,150.20
2018,10,03,09,21,151.00
2018,10,03,09,22,151.00
2018,10,03,09,23,151.10
2018,10,03,09,24,153.00
2018,10,03,09,25,154.00
2018,10,03,09,26,159.40
2018,10,03,09,27,168.50
2018,10,03,09,28,165.50
2018,10,03,09,29,157.00
2018,10,03,09,30,163.00
2018,10,03,09,31,177.90
2018,10,03,09,32,180.20
2018,10,03,09,33,173.30
2018,10,03,09,34,170.70
2018,10,03,09,35,167.00
2018,10,03,09,36,177.30
2018,10,03,09,37,177.10
2018,10,03,09,38,188.20
2018,10,03,09,39,199.30
2018,10,03,09,40,207.00
2018,10,03,09,41,208.20
2018,10,03,09,42,206.90
2018,10,03,09,43,208.50
2018,10,03,09,44,217.90
2018,10,03,09,45,220.20
2018,10,03,09,46,219.90
2018,10,03,09,47,217.00
2018,10,03,09,48,216.00
2018,10,03,09,49,216.00
2018,10,03,09,50,217.70
2018,10,03,09,51,217.70
2018,10,03,09,52,213.00
2018,10,03,09,53,207.30
2018,10,03,09,54,203.10
2018,10,03,09,55,202.00
2018,10,03,09,56,202.00
2018,10,03,09,57,202.00
2018,10,03,09,58,206.90
2018,10,03,09,59,218.40
2018,10,03,10,00,230.40
2018,10,03,10,01,238.90
2018,10,03,10,02,243.90
2018,10,03,10,03,246.00
2018,10,03,10,04,238.30
2018,10,03,10,05,233.60
2018,10,03,10,06,247.70
2018,10,03,10,07,251.90
2018,10,03,10,08,242.30
2018,10,03,10,09,238.30
2018,10,03,10,10,256.00
2018,10,03,10,11,241.30
2018,10,03,10,12,246.10
2018,10,03,10,13,248.70
2018,10,03,10,14,250.20
2018,10,03,10,15,263.40
2018,10,03,10,16,263.20
2018,10,03,10,17,275.80
2018,10,03,10,18,286.10
2018,10,03,10,19,305.30
2018,10,03,10,20,309.00
2018,10,03,10,21,310.30
2018,10,03,10,22,285.50
2018,10,03,10,23,273.90
2018,10,03,10,24,276.80
2018,10,03,10,25,273.00
2018,10,03,10,26,265.20
2018,10,03,10,27,260.70
2018,10,03,10,28,246.40
2018,10,03,10,29,244.50
2018,10,03,10,30,228.80
2018,10,03,10,31,219.40
2018,10,03,10,32,218.00
2018,10,03,10,33,219.10
2018,10,03,10,34,229.70
2018,10,03,10,35,232.70
2018,10,03,10,36,234.90
2018,10,03,10,37,240.10
2018,10,03,10,38,241.60
2018,10,03,10,39,239.30
2018,10,03,10,40,244.00
2018,10,03,10,41,246.40
2018,10,03,10,42,249.70
2018,10,03,10,43,257.20
2018,10,03,10,44,264.90
2018,10,03,10,45,268.40
2018,10,03,10,46,271.60
2018,10,03,10,47,270.60
2018,10,03,10,48,265.30
2018,10,03,10,49,259.30
2018,10,03,10,50,255.70
2018,10,03,10,51,251.80
2018,10,03,10,52,251.00
2018,10,03,10,53,250.20
2018,10,03,10,54,255.30
2018,10,03,10,55,259.30
2018,10,03,10,56,256.30
2018,10,03,10,57,256.00
2018,10,03,10,58,261.90
2018,10,03,10,59,273.00
2018,10,03,11,00,288.10
2018,10,03,11,01,292.00
2018,10,03,11,02,289.80
2018,10,03,11,03,277.30
2018,10,03,11,04,260.20
2018,10,03,11,05,246.90
2018,10,03,11,06,240.10
2018,10,03,11,07,236.40
2018,10,03,11,08,237.60
2018,10,03,11,09,245.90
2018,10,03,11,10,260.00
2018,10,03,11,11,277.40
2018,10,03,11,12,298.10
2018,10,03,11,13,307.40
2018,10,03,11,14,306.30
2018,10,03,11,15,307.00
2018,10,03,11,16,316.90
2018,10,03,11,17,320.00
2018,10,03,11,18,341.40
2018,10,03,11,19,381.20
2018,10,03,11,20,407.20
2018,10,03,11,21,423.30
2018,10,03,11,22,416.50
2018,10,03,11,23,401.50
2018,10,03,11,24,400.90
2018,10,03,11,25,395.60
2018,10,03,11,26,384.10
2018,10,03,11,27,371.30
2018,10,03,11,28,355.20
2018,10,03,11,29,349.60
2018,10,03,11,30,345.80
2018,10,03,11,31,343.70
2018,10,03,11,32,342.80
2018,10,03,11,33,349.10
2018,10,03,11,34,352.70
2018,10,03,11,35,343.10
2018,10,03,11,36,326.30
2018,10,03,11,37,317.40
2018,10,03,11,38,322.00
2018,10,03,11,39,321.10
2018,10,03,11,40,315.90
2018,10,03,11,41,309.40
2018,10,03,11,42,306.30
2018,10,03,11,43,301.80
2018,10,03,11,44,298.60
2018,10,03,11,45,295.30
2018,10,03,11,46,287.80
2018,10,03,11,47,280.70
2018,10,03,11,48,276.80
2018,10,03,11,49,271.70
2018,10,03,11,50,269.10
2018,10,03,11,51,268.50
2018,10,03,11,52,266.30
2018,10,03,11,53,263.60
2018,10,03,11,54,259.60
2018,10,03,11,55,257.30
2018,10,03,11,56,255.30
2018,10,03,11,57,252.90
2018,10,03,11,58,250.30
2018,10,03,11,59,246.60
2018,10,03,12,00,243.50
2018,10,03,12,01,243.00
2018,10,03,12,02,243.00
2018,10,03,12,03,243.90
2018,10,03,12,04,248.20
2018,10,03,12,05,252.00
2018,10,03,12,06,256.10
2018,10,03,12,07,259.00
2018,10,03,12,08,262.40
2018,10,03,12,09,267.60
2018,10,03,12,10,273.30
2018,10,03,12,11,278.10
2018,10,03,12,12,280.40
2018,10,03,12,13,288.60
2018,10,03,12,14,297.70
2018,10,03,12,15,301.60
2018,10,03,12,16,306.50
2018,10,03,12,17,302.80
2018,10,03,12,18,302.70
2018,10,03,12,19,309.40
2018,10,03,12,20,312.40
2018,10,03,12,21,309.50
2018,10,03,12,22,302.20
2018,10,03,12,23,301.00
2018,10,03,12,24,301.90
2018,10,03,12,25,306.50
2018,10,03,12,26,315.60
2018,10,03,12,27,342.10
2018,10,03,12,28,383.30
2018,10,03,12,29,419.50
2018,10,03,12,30,429.00
2018,10,03,12,31,424.70
2018,10,03,12,32,426.00
2018,10,03,12,33,459.00
2018,10,03,12,34,459.00
2018,10,03,12,35,463.80
2018,10,03,12,36,450.80
2018,10,03,12,37,462.20
2018,10,03,12,38,422.70
2018,10,03,12,39,400.40
2018,10,03,12,40,427.10
2018,10,03,12,41,403.10
2018,10,03,12,42,376.60
2018,10,03,12,43,377.70
2018,10,03,12,44,368.30
2018,10,03,12,45,381.70
2018,10,03,12,46,358.00
2018,10,03,12,47,354.40
2018,10,03,12,48,343.60
2018,10,03,12,49,337.80
2018,10,03,12,50,329.90
2018,10,03,12,51,323.40
2018,10,03,12,52,318.60
2018,10,03,12,53,318.20
2018,10,03,12,54,321.10
2018,10,03,12,55,329.50
2018,10,03,12,56,333.80
2018,10,03,12,57,329.60
2018,10,03,12,58,346.70
2018,10,03,12,59,335.00
2018,10,03,13,00,338.00
2018,10,03,13,01,372.40
2018,10,03,13,02,432.40
2018,10,03,13,03,429.20
2018,10,03,13,04,411.00
2018,10,03,13,05,375.60
2018,10,03,13,06,342.60
2018,10,03,13,07,333.80
2018,10,03,13,08,325.70
2018,10,03,13,09,309.20
2018,10,03,13,10,302.00
2018,10,03,13,11,301.40
2018,10,03,13,12,299.50
2018,10,03,13,13,294.70
2018,10,03,13,14,284.40
2018,10,03,13,15,277.80
2018,10,03,13,16,271.50
2018,10,03,13,17,266.00
2018,10,03,13,18,265.00
2018,10,03,13,19,269.50
2018,10,03,13,20,273.60
2018,10,03,13,21,283.90
2018,10,03,13,22,295.20
2018,10,03,13,23,300.70
2018,10,03,13,24,307.20
2018,10,03,13,25,313.90
2018,10,03,13,26,318.90
2018,10,03,13,27,321.70
2018,10,03,13,28,321.40
2018,10,03,13,29,315.40
2018,10,03,13,30,311.30
2018,10,03,13,31,308.00
2018,10,03,13,32,302.70
2018,10,03,13,33,305.50
2018,10,03,13,34,312.30
2018,10,03,13,35,338.20
2018,10,03,13,36,323.80
2018,10,03,13,37,331.10
2018,10,03,13,38,352.90
2018,10,03,13,39,386.60
2018,10,03,13,40,383.80
2018,10,03,13,41,374.60
2018,10,03,13,42,405.80
2018,10,03,13,43,379.40
2018,10,03,13,44,400.90
2018,10,03,13,45,388.20
2018,10,03,13,46,391.50
2018,10,03,13,47,402.40
2018,10,03,13,48,429.60
2018,10,03,13,49,524.30
2018,10,03,13,50,551.80
2018,10,03,13,51,585.80
2018,10,03,13,52,582.40
2018,10,03,13,53,522.90
2018,10,03,13,54,458.60
2018,10,03,13,55,403.30
2018,10,03,13,56,449.80
2018,10,03,13,57,421.90
2018,10,03,13,58,422.40
2018,10,03,13,59,439.50
2018,10,03,14,00,427.30
2018,10,03,14,01,454.00
2018,10,03,14,02,464.00
2018,10,03,14,03,371.60
2018,10,03,14,04,378.00
2018,10,03,14,05,332.20
2018,10,03,14,06,302.70
2018,10,03,14,07,293.90
2018,10,03,14,08,286.80
2018,10,03,14,09,279.00
2018,10,03,14,10,268.20
2018,10,03,14,11,259.30
2018,10,03,14,12,249.30
2018,10,03,14,13,246.00
2018,10,03,14,14,248.90
2018,10,03,14,15,253.90
2018,10,03,14,16,255.00
2018,10,03,14,17,269.00
2018,10,03,14,18,274.90
2018,10,03,14,19,278.30
2018,10,03,14,20,279.00
2018,10,03,14,21,271.70
2018,10,03,14,22,261.90
2018,10,03,14,23,257.40
2018,10,03,14,24,249.30
2018,10,03,14,25,242.80
2018,10,03,14,26,236.50
2018,10,03,14,27,227.80
2018,10,03,14,28,217.70
2018,10,03,14,29,208.20
2018,10,03,14,30,200.90
2018,10,03,14,31,196.90
2018,10,03,14,32,194.60
2018,10,03,14,33,193.00
2018,10,03,14,34,192.50
2018,10,03,14,35,188.40
2018,10,03,14,36,180.90
2018,10,03,14,37,172.10
2018,10,03,14,38,164.70
2018,10,03,14,39,162.00
2018,10,03,14,40,162.00
2018,10,03,14,41,162.50
2018,10,03,14,42,163.00
2018,10,03,14,43,164.40
2018,10,03,14,44,166.70
2018,10,03,14,45,166.80
2018,10,03,14,46,164.30
2018,10,03,14,47,160.60
2018,10,03,14,48,156.60
2018,10,03,14,49,152.70
2018,10,03,14,50,149.60
2018,10,03,14,51,148.10
2018,10,03,14,52,148.00
2018,10,03,14,53,148.00
2018,10,03,14,54,148.00
2018,10,03,14,55,148.00
2018,10,03,14,56,146.80
2018,10,03,14,57,146.00
2018,10,03,14,58,144.30
2018,10,03,14,59,146.00
2018,10,03,15,00,146.00
2018,10,03,15,01,146.00
2018,10,03,15,02,146.90
2018,10,03,15,03,149.80
2018,10,03,15,04,156.10
2018,10,03,15,05,165.80
2018,10,03,15,06,174.80
2018,10,03,15,07,181.80
2018,10,03,15,08,185.00
2018,10,03,15,09,185.00
2018,10,03,15,10,182.70
2018,10,03,15,11,178.80
2018,10,03,15,12,174.60
2018,10,03,15,13,171.90
2018,10,03,15,14,170.60
2018,10,03,15,15,168.30
2018,10,03,15,16,166.00
2018,10,03,15,17,162.00
2018,10,03,15,18,156.40
2018,10,03,15,19,149.00
2018,10,03,15,20,141.70
2018,10,03,15,21,138.50
2018,10,03,15,22,137.70
2018,10,03,15,23,140.00
2018,10,03,15,24,141.60
2018,10,03,15,25,143.50
2018,10,03,15,26,142.30
2018,10,03,15,27,140.80
2018,10,03,15,28,138.60
2018,10,03,15,29,136.00
2018,10,03,15,30,134.00
2018,10,03,15,31,132.80
2018,10,03,15,32,130.60
2018,10,03,15,33,125.70
2018,10,03,15,34,120.50
2018,10,03,15,35,115.00
2018,10,03,15,36,109.70
2018,10,03,15,37,107.00
2018,10,03,15,38,107.00
2018,10,03,15,39,108.40
2018,10,03,15,40,112.30
2018,10,03,15,41,116.30
2018,10,03,15,42,120.60
2018,10,03,15,43,123.70
2018,10,03,15,44,126.00
2018,10,03,15,45,127.00
2018,10,03,15,46,127.00
2018,10,03,15,47,123.70
2018,10,03,15,48,115.30
2018,10,03,15,49,106.40
2018,10,03,15,50,102.60
2018,10,03,15,51,100.90
2018,10,03,15,52,103.20
2018,10,03,15,53,104.70
2018,10,03,15,54,108.40
2018,10,03,15,55,111.20
2018,10,03,15,56,113.00
2018,10,03,15,57,113.00
2018,10,03,15,58,112.00
2018,10,03,15,59,108.60
2018,10,03,16,00,103.40
2018,10,03,16,01,97.70
2018,10,03,16,02,92.90
2018,10,03,16,03,91.00
2018,10,03,16,04,92.40
2018,10,03,16,05,95.90
2018,10,03,16,06,97.00
2018,10,03,16,07,97.70
2018,10,03,16,08,98.00
2018,10,03,16,09,98.00
2018,10,03,16,10,99.00
2018,10,03,16,11,102.70
2018,10,03,16,12,105.30
2018,10,03,16,13,109.30
2018,10,03,16,14,111.00
2018,10,03,16,15,111.00
2018,10,03,16,16,108.90
2018,10,03,16,17,107.00
2018,10,03,16,18,107.00
2018,10,03,16,19,107.00
2018,10,03,16,20,105.80
2018,10,03,16,21,104.30
2018,10,03,16,22,98.90
2018,10,03,16,23,94.70
2018,10,03,16,24,90.80
2018,10,03,16,25,89.30
2018,10,03,16,26,88.00
2018,10,03,16,27,88.00
2018,10,03,16,28,88.00
2018,10,03,16,29,88.00
2018,10,03,16,30,87.80
2018,10,03,16,31,85.60
2018,10,03,16,32,83.00
2018,10,03,16,33,80.00
2018,10,03,16,34,79.00
2018,10,03,16,35,79.00
2018,10,03,16,36,80.60
2018,10,03,16,37,82.90
2018,10,03,16,38,83.00
2018,10,03,16,39,83.30
2018,10,03,16,40,84.00
2018,10,03,16,41,84.00
2018,10,03,16,42,85.40
2018,10,03,16,43,86.00
2018,10,03,16,44,86.00
2018,10,03,16,45,85.60
2018,10,03,16,46,84.00
2018,10,03,16,47,82.60
2018,10,03,16,48,81.00
2018,10,03,16,49,77.40
2018,10,03,16,50,72.70
2018,10,03,16,51,70.00
2018,10,03,16,52,69.00
2018,10,03,16,53,69.00
2018,10,03,16,54,69.00
2018,10,03,16,55,67.80
2018,10,03,16,56,67.00
2018,10,03,16,57,65.30
2018,10,03,16,58,64.80
2018,10,03,16,59,63.00
2018,10,03,17,00,62.70
2018,10,03,17,01,62.50
2018,10,03,17,02,63.00
2018,10,03,17,03,64.40
2018,10,03,17,04,65.00
2018,10,03,17,05,67.10
2018,10,03,17,06,69.00
2018,10,03,17,07,68.30
2018,10,03,17,08,67.00
2018,10,03,17,09,67.00
2018,10,03,17,10,65.60
2018,10,03,17,11,65.00
2018,10,03,17,12,62.70
2018,10,03,17,13,59.20
2018,10,03,17,14,56.00
2018,10,03,17,15,52.80
2018,10,03,17,16,47.20
2018,10,03,17,17,44.60
2018,10,03,17,18,44.00